{"data":{"norad_id":43171,"intl_designator":"2018-011C","name":"YAOGAN-30 05B","alt_names":[],"object_type":"PAYLOAD","status":"ACTIVE","operator":null,"country":"PRC","launch_date":"2018-01-25","launch_site_code":"XICLF","launch_vehicle":null,"mission":null,"orbit_class":"UNKNOWN","rcs_meters":null,"size_class":null,"mass_kg":null,"dimensions":null,"purposes":[],"wikipedia_slug":null,"has_3d_model":false,"image_url":null,"decayed_at":null,"tle_current":{"epoch":"2026-09-20T03:53:46.011840Z","epoch_age_seconds":61556,"freshness":"FRESH","line1":"1 43171U 18011C   26263.16233810  .00001638  00000+0  12141-3 0  9999","line2":"2 43171  34.9954 291.6832 0001017 101.4794 258.6029 15.03021962472518","mean_motion":15.03021962,"eccentricity":0.0001017,"inclination_deg":34.9954,"raan_deg":291.6832,"arg_perigee_deg":101.4794,"mean_anomaly_deg":258.6029,"bstar":0.00012141,"rev_number":47251,"period_min":95.806983291439,"perigee_km":556.87878086122,"apogee_km":558.28950654185,"semimajor_km":6935.7211437015,"source":"CELESTRAK","updated_at":"2026-09-20T09:00:14.305380Z"}}}